Latest Coastal Weather Observations for Browse Island

IDW60701

Issued at 1:23 am WST Wednesday 28 June 2017 (issued every 10 minutes, with the page automatically refreshed every 10 minutes)

About coastal observations | Map of coastal stations | Coastal observations for WA | Marine services | Other Formats
Station Details ID: 200784 Name: BROWSE ISLAND Lat: -14.11 Lon: 123.55 Height: 3.7 m
Data from the previous 72 hours. | See also: Recent months at Browse Island
Date/Time
WST
Temp
°C
Wind Pressure Rain since
9am
mm
Weather Cloud Vis
km
Sea
Height
m
Swell
Dir  Spd
kts
Gust
kts
hPa Trend Height
m
Period
s
Dir
28/01:00am 26.5 S 8 - 1013.8 - - - - - - - - -
28/12:30am 26.4 SSW 8 9 1014.0 - - - - - - - - -
28/12:00am 26.3 SSW 8 - 1014.1 - - - - - - - - -
 
Date/Time
WST
Temp
°C
Wind Pressure Rain since
9am
mm
Weather Cloud Vis
km
Sea
Height
m
Swell
Dir  Spd
kts
Gust
kts
hPa Trend Height
m
Period
s
Dir
27/11:30pm 26.0 SSW 8 - 1014.0 - - - - - - - - -
27/11:00pm 26.3 SSW 10 11 1014.2 - - - - - - - - -
27/10:30pm 26.0 SSW 9 - 1014.0 - - - - - - - - -
27/10:00pm 26.3 SSW 9 - 1014.2 - - - - - - - - -
27/09:30pm 26.0 SSW 7 - 1014.0 - - - - - - - - -
27/09:00pm 26.1 SSW 6 - 1014.4 - - - - - - - - -
27/08:30pm 26.0 SSW 5 - 1014.0 - - - - - - - - -
27/08:00pm 26.2 S 5 - 1014.3 - - - - - - - - -
27/07:30pm 26.0 S 6 - 1014.0 - - - - - - - - -
27/07:00pm 26.3 S 8 - 1014.0 - - - - - - - - -
27/06:30pm 26.0 S 9 - 1013.0 - - - - - - - - -
27/06:00pm 26.4 SSE 8 - 1013.5 - - - - - - - - -
27/05:30pm 26.0 S 8 - 1013.0 - - - - - - - - -
27/05:00pm 26.4 S 8 - 1013.1 - - - - - - - - -
27/04:30pm 27.0 S 8 - 1012.0 - - - - - - - - -
27/04:00pm 26.5 S 9 - 1012.6 - - - - - - - - -
27/03:30pm 27.0 SSE 9 - 1012.0 - - - - - - - - -
27/03:00pm 26.7 SSE 11 - 1012.5 - - - - - - - - -
27/02:30pm 27.0 S 12 - 1012.0 - - - - - - - - -
27/02:00pm 26.5 SSE 11 - 1012.7 - - - - - - - - -
27/01:30pm 27.0 SSE 9 - 1013.0 - - - - - - - - -
27/01:00pm 27.2 S 10 - 1013.1 - - - - - - - - -
27/12:30pm 26.8 SSE 10 11 1013.4 - - - - - - - - -
27/12:00pm 26.8 S 9 11 1013.6 - - - - - - - - -
27/11:30am 27.0 SSE 10 - 1014.0 - - - - - - - - -
27/11:00am 26.9 SSE 9 - 1014.2 - - - - - - - - -
27/10:30am 27.0 SSE 9 - 1014.0 - - - - - - - - -
27/10:00am 26.5 SSE 10 - 1014.9 - - - - - - - - -
27/09:30am 26.0 SSE 9 - 1015.0 - - - - - - - - -
27/09:00am 26.5 SSE 8 - 1015.1 - - - - - - - - -
27/08:30am 26.0 SE 7 - 1015.0 - - - - - - - - -
27/08:00am 26.5 SE 6 - 1014.8 - - - - - - - - -
27/07:30am 26.0 SE 6 - 1014.0 - - - - - - - - -
27/07:00am 25.9 SE 8 - 1014.4 - - - - - - - - -
27/06:30am 26.0 SE 8 - 1014.0 - - - - - - - - -
27/06:00am 25.7 SSE 9 - 1013.8 - - - - - - - - -
27/05:30am 26.0 SSE 9 - 1013.0 - - - - - - - - -
27/05:00am 25.8 SE 8 11 1013.6 - - - - - - - - -
27/04:30am 26.0 SSE 7 - 1013.0 - - - - - - - - -
27/04:00am 26.0 SE 8 9 1013.9 - - - - - - - - -
27/03:30am 26.0 SE 6 - 1013.0 - - - - - - - - -
27/03:00am 25.9 SE 7 - 1013.6 - - - - - - - - -
27/02:30am 26.0 SE 6 - 1013.0 - - - - - - - - -
27/02:00am 26.0 SSE 7 - 1013.8 - - - - - - - - -
27/01:30am 26.0 SSE 7 - 1014.0 - - - - - - - - -
27/01:00am 26.1 SSE 7 - 1014.2 - - - - - - - - -
27/12:30am 26.0 SSE 6 - 1014.0 - - - - - - - - -
27/12:00am 26.2 SSE 5 - 1014.3 - - - - - - - - -
 
Date/Time
WST
Temp
°C
Wind Pressure Rain since
9am
mm
Weather Cloud Vis
km
Sea
Height
m
Swell
Dir  Spd
kts
Gust
kts
hPa Trend Height
m
Period
s
Dir
26/11:30pm 26.0 S 6 - 1014.0 - - - - - - - - -
26/11:00pm 26.2 S 5 - 1014.5 - - - - - - - - -
26/10:30pm 26.0 SSE 2 - 1014.0 - - - - - - - - -
26/10:00pm 25.6 CALM 0 - 1014.6 - - - - - - - - -
26/09:30pm 26.0 CALM 0 - 1014.0 - - - - - - - - -
26/09:00pm 26.0 CALM 0 - 1014.6 - - - - - - - - -
26/08:30pm 26.0 CALM 0 - 1014.0 - - - - - - - - -
26/08:00pm 26.1 SSE 3 - 1014.3 - - - - - - - - -
26/07:30pm 26.0 SSE 4 - 1014.0 - - - - - - - - -
26/07:00pm 26.2 SE 4 - 1013.9 - - - - - - - - -
26/06:30pm 26.0 SE 5 - 1013.0 - - - - - - - - -
26/06:00pm 26.3 SE 5 - 1013.4 - - - - - - - - -
26/05:30pm 26.0 SSE 5 - 1013.0 - - - - - - - - -
26/05:00pm 26.5 SSE 4 - 1012.9 - - - - - - - - -
26/04:30pm 27.0 SSE 5 - 1012.0 - - - - - - - - -
26/04:00pm 26.9 SSE 5 - 1012.7 - - - - - - - - -
26/03:30pm 27.1 SSE 5 6 1012.6 - - - - - - - - -
26/03:00pm 26.9 S 4 - 1012.5 - - - - - - - - -
26/02:30pm 28.0 S 3 - 1012.0 - - - - - - - - -
26/02:00pm 26.9 S 4 - 1012.7 - - - - - - - - -
26/01:30pm 27.0 S 3 - 1013.0 - - - - - - - - -
26/01:00pm 27.0 S 3 - 1013.1 - - - - - - - - -
26/12:30pm 27.0 S 3 - 1013.0 - - - - - - - - -
26/12:00pm 27.4 SE 1 - 1013.6 - - - - - - - - -
26/11:30am 27.0 S 4 - 1014.0 - - - - - - - - -
26/11:00am 27.0 S 4 - 1014.3 - - - - - - - - -
26/10:30am 27.1 S 3 4 1014.5 - - - - - - - - -
26/10:00am 26.9 S 4 - 1014.6 - - - - - - - - -
26/09:30am 27.0 SSE 3 - 1014.0 - - - - - - - - -
26/09:00am 26.5 S 3 - 1014.6 - - - - - - - - -
26/08:30am 28.0 ESE 1 - 1014.0 - - - - - - - - -
26/08:00am 26.4 CALM 0 - 1014.4 - - - - - - - - -
26/07:30am 27.0 ENE 2 - 1014.0 - - - - - - - - -
26/07:00am 26.1 ENE 4 - 1013.6 - - - - - - - - -
26/06:30am 25.7 E 4 5 1013.4 - - - - - - - - -
26/06:00am 25.4 ENE 4 - 1013.1 - - - - - - - - -
26/05:30am 26.0 E 3 - 1013.0 - - - - - - - - -
26/05:00am 25.6 ESE 4 - 1012.7 - - - - - - - - -
26/04:30am 26.0 ESE 4 - 1012.0 - - - - - - - - -
26/04:00am 25.6 SE 4 - 1012.3 - - - - - - - - -
26/03:30am 26.0 SE 3 - 1012.0 - - - - - - - - -
26/03:00am 25.6 CALM 0 - 1012.1 - - - - - - - - -
26/02:30am 25.0 CALM 0 - 1012.0 - - - - - - - - -
26/02:00am 25.4 CALM 0 - 1012.4 - - - - - - - - -
26/01:30am 25.0 CALM 0 - 1012.0 - - - - - - - - -
26/01:00am 25.7 CALM 0 - 1012.7 - - - - - - - - -
26/12:30am 26.0 CALM 0 - 1013.0 - - - - - - - - -
26/12:00am 25.6 CALM 0 - 1013.1 - - - - - - - - -
 
Date/Time
WST
Temp
°C
Wind Pressure Rain since
9am
mm
Weather Cloud Vis
km
Sea
Height
m
Swell
Dir  Spd
kts
Gust
kts
hPa Trend Height
m
Period
s
Dir
25/11:30pm 26.0 CALM 0 - 1013.0 - - - - - - - - -
25/11:00pm 25.7 CALM 0 - 1013.3 - - - - - - - - -
25/10:30pm 26.0 CALM 0 - 1013.0 - - - - - - - - -
25/10:00pm 25.7 CALM 0 - 1013.4 - - - - - - - - -
25/09:30pm 26.0 N 4 - 1013.0 - - - - - - - - -
25/09:00pm 26.1 NNE 4 - 1013.2 - - - - - - - - -
25/08:30pm 26.0 NNE 5 - 1013.0 - - - - - - - - -
25/08:00pm 26.0 NNE 5 - 1012.6 - - - - - - - - -
25/07:30pm 26.0 NE 4 - 1012.0 - - - - - - - - -
25/07:00pm 26.5 NE 4 - 1012.3 - - - - - - - - -
25/06:30pm 26.0 ENE 4 - 1012.0 - - - - - - - - -
25/06:00pm 26.5 E 5 6 1012.0 - - - - - - - - -
25/05:30pm 27.0 ENE 5 - 1011.0 - - - - - - - - -
25/05:00pm 27.1 E 5 - 1011.5 - - - - - - - - -
25/04:30pm 28.0 E 5 - 1011.0 - - - - - - - - -
25/04:00pm 27.2 E 6 - 1011.2 - - - - - - - - -
25/03:30pm 28.0 E 5 - 1011.0 - - - - - - - - -
25/03:00pm 27.9 E 6 - 1011.2 - - - - - - - - -
25/02:30pm 28.0 E 6 - 1011.0 - - - - - - - - -
25/02:00pm 28.3 E 5 7 1011.5 - - - - - - - - -
25/01:30pm 28.0 ESE 6 - 1011.0 - - - - - - - - -
25/01:00pm 28.6 E 6 7 1011.9 - - - - - - - - -
25/12:30pm 28.0 ESE 5 - 1012.0 - - - - - - - - -
25/12:00pm 28.4 E 6 - 1012.6 - - - - - - - - -
25/11:30am 29.0 E 6 - 1013.0 - - - - - - - - -
25/11:00am 28.4 E 6 - 1013.3 - - - - - - - - -
25/10:30am 28.0 ENE 6 - 1013.0 - - - - - - - - -
25/10:00am 28.3 E 6 - 1013.9 - - - - - - - - -
25/09:30am 28.0 E 6 - 1014.0 - - - - - - - - -
25/09:00am 27.9 ENE 7 - 1013.9 - - - - - - - - -
25/08:30am 27.0 E 8 - 1013.0 - - - - - - - - -
25/08:00am 27.4 E 7 - 1013.6 - - - - - - - - -
25/07:30am 27.0 ESE 5 - 1013.0 - - - - - - - - -
25/07:00am 26.4 ESE 5 7 1012.9 - - - - - - - - -
25/06:30am 26.0 ESE 7 - 1012.0 - - - - - - - - -
25/06:00am 26.3 ESE 7 - 1012.6 - - - - - - - - -
25/05:30am 26.0 ESE 8 - 1012.0 - - - - - - - - -
25/05:00am 26.0 E 8 - 1011.9 - - - - - - - - -
25/04:30am 26.0 E 8 - 1011.0 - - - - - - - - -
25/04:00am 26.2 ESE 8 - 1012.0 - - - - - - - - -
25/03:30am 26.0 SE 8 - 1012.0 - - - - - - - - -
25/03:00am 26.4 SE 7 - 1012.0 - - - - - - - - -
25/02:30am 26.0 SE 7 - 1012.0 - - - - - - - - -
25/02:00am 26.4 SE 7 - 1012.3 - - - - - - - - -
25/01:30am 27.0 SSE 6 - 1012.0 - - - - - - - - -

Other Formats:

Comma delimited format used in spreadsheet applications
http://www.bom.gov.au/fwo/IDW60701/IDW60701.94103.axf

JavaScript Object Notation format (JSON) in row-major order
http://www.bom.gov.au/fwo/IDW60701/IDW60701.94103.json